Вернуться в каталог

COSMOS 2499 DEB

АктивенPO
NORAD 60613·DEBRIS·🇷🇺 Russia

Запущен May 23, 2014 с Plesetsk Cosmodrome

Loading…

Ближайшие Пролёты (ближайшие 24 часа)

TLE

УстаревшееSource: Space-Track

Эпоха: Aug 25, 2026, 02:45 UTC

1 60613U 14028BZ  26237.11463879  .00002908  00000-0  86762-2 0  9990
2 60613  82.4803 191.7800 0255618 110.1586 252.7218 12.96728727155805

Отслеживайте COSMOS 2499 DEB в реальном времени с AllMySat

Download on the App Store